Vertical_Velocity
1 0 -2 6 -1 4 3 -3 -7 -2 -16 -4 1 -6 -9 -2 3 3 -3 6 -1 -1 -1 -6 7 -4 1
-2 -5 1 -5 -1 -1 2 4 1 -9 -4 -2 1 -4 -1 1 -1 0 2 4 -4 -1 -1 10 -1 -1 -4
-25 -6 -7 -0 -7 -0 -4 -7 2 -0 -4 -13 0 -3 -2 -3 3 1 4 3 3 -1 2 -1 2 0 0
-0 -10 9 -1 2 0 -4 -2 -6 -2 -9 1 -1 -6 -7 -7 -6 -4 -2 -6 -6 -5 -6 -3 -1 -3 -6
12 1 -8 -5 -2 -3 -5 -1 -0 -4 -9 4 -4 -4 -5 -7 -4 -0 -3 -6 -1 -0 -3 -1 -2 -4 -6
-4 0 -5 -2 -4 2 4 -1 -32 11 -5 -9 8 -2 -3 1 1 -3 -0 2 1 4 3 -0 2 -3 3
4 1 -5 4 10 -4 0 5 -2 -8 4 -18 8 -9 -0 -1 4 1 1 1 1 0 -0 -4 -3 -6 -5
1 -2 9 2 8 8 2 -1 -5 -3 8 -6 -2 -10 -10 -7 -4 -2 -0 -2 -2 -4 -4 0 4 2 -1
-3 -4 0 2 6 6 -4 3 -13 -12 2 5 -2 -11 4 -10 -5 -2 -2 -2 0 -3 -3 -3 -6 -3 1
-6 -5 1 -2 1 8 3 3 4 -14 6 11 -0 10 -12 -2 -3 1 -9 1 1 1 -1 -2 -2 4 -2
-4 -5 -4 -1 1 2 5 8 4 3 4 26 -2 -3 13 -18 -1 2 5 -5 -1 -2 2 1 2 6 -1
-5 -3 -2 -4 -4 0 2 2 8 9 -6 5 4 12 7 -3 -10 -11 6 2 2 -4 -0 -0 2 2 5
-2 -2 0 1 -0 -2 3 2 0 -1 -1 1 5 1 8 -0 -3 -9 3 -13 3 4 -1 1 -3 1 -5
-3 -1 -0 -2 -2 3 -4 -5 -6 -7 9 6 5 6 -4 7 7 -6 3 11 -6 -0 1 -0 -2 3 5
-1 -1 -1 -1 -3 -1 1 -2 5 -5 -13 -6 7 7 4 2 -6 7 -0 -7 7 12 1 0 -1 3 4
2 2 -1 -3 -4 -2 4 2 -2 -2 -3 -0 -8 -18 -8 -12 2 -2 3 1 1 2 3 5 -6 10 20
0 -1 -0 3 -0 -3 -1 2 -1 -1 3 3 -2 1 -4 -1 -6 17 4 -2 -2 -7 5 2 7 3 15
Height
1393 1388 1383 1379 1375 1371 1367 1363 1358 1356 1352 1347 1342 1336 1329 1323 1319 1316 1313 1311 1309 1307 1306 1306 1305 1305 1306
1385 1381 1377 1372 1366 1361 1357 1353 1348 1343 1339 1335 1329 1323 1317 1312 1308 1304 1301 1299 1297 1295 1293 1293 1291 1291 1291
1380 1375 1368 1364 1357 1353 1348 1341 1337 1332 1328 1322 1317 1312 1306 1302 1298 1293 1289 1286 1283 1282 1280 1279 1279 1280 1279
1375 1367 1362 1357 1352 1344 1335 1332 1325 1322 1314 1309 1307 1301 1296 1291 1286 1281 1277 1274 1271 1269 1267 1266 1266 1267 1268
1370 1364 1357 1350 1344 1337 1329 1321 1314 1313 1303 1297 1293 1287 1281 1276 1272 1267 1264 1261 1259 1256 1255 1254 1253 1253 1254
1364 1357 1350 1344 1337 1330 1324 1315 1301 1304 1296 1285 1284 1274 1269 1264 1259 1256 1253 1249 1246 1244 1242 1240 1239 1239 1239
1358 1351 1344 1339 1332 1324 1317 1310 1301 1293 1290 1275 1272 1262 1258 1252 1248 1244 1240 1237 1233 1230 1228 1226 1226 1226 1226
1353 1346 1340 1334 1328 1320 1311 1303 1293 1286 1283 1269 1263 1253 1247 1240 1235 1231 1228 1224 1220 1217 1215 1213 1212 1211 1210
1346 1340 1333 1326 1321 1313 1305 1296 1284 1277 1273 1264 1254 1245 1237 1227 1224 1221 1218 1213 1208 1204 1201 1199 1197 1196 1194
1337 1331 1326 1319 1314 1309 1300 1291 1282 1270 1266 1260 1248 1244 1228 1220 1216 1210 1203 1198 1194 1190 1186 1184 1182 1180 1176
1330 1324 1318 1313 1307 1301 1295 1288 1278 1268 1261 1256 1245 1239 1234 1217 1205 1200 1196 1188 1182 1176 1171 1168 1165 1164 1159
1325 1319 1313 1307 1300 1294 1288 1281 1274 1266 1256 1252 1243 1236 1227 1216 1205 1192 1188 1181 1173 1167 1162 1156 1152 1148 1145
1322 1315 1309 1302 1295 1288 1281 1275 1267 1260 1253 1246 1239 1231 1225 1215 1204 1192 1182 1172 1168 1161 1153 1147 1141 1136 1131
1318 1312 1305 1298 1291 1284 1276 1268 1260 1251 1248 1242 1236 1229 1219 1210 1203 1192 1182 1174 1162 1156 1147 1139 1133 1127 1120
1315 1308 1301 1294 1287 1281 1274 1266 1259 1250 1240 1235 1231 1225 1217 1209 1200 1192 1182 1171 1161 1151 1142 1133 1124 1116 1109
1311 1305 1298 1291 1284 1278 1272 1265 1257 1249 1242 1236 1229 1219 1212 1207 1200 1191 1183 1172 1160 1149 1140 1129 1117 1105 1097
1308 1302 1296 1289 1282 1275 1269 1263 1256 1249 1244 1238 1231 1225 1216 1209 1202 1197 1187 1176 1164 1151 1140 1130 1120 1107 1100